AirNav   BOSE A20 Aviation Headset
 
 408 users online  

74R Horizon Airport
San Antonio, Texas, USA

GOING TO SAN ANTONIO?


FAA INFORMATION EFFECTIVE 26 APRIL 2018

Location

FAA Identifier: 74R
Lat/Long: 29-17-04.5000N / 098-29-53.9000W
29-17.075000N / 098-29.898333W
29.2845833 / -98.4983056
(estimated)
Elevation: 551 ft. / 168 m (estimated)
Variation: 07E (1985)
From city: 9 miles S of SAN ANTONIO, TX
Time zone: UTC -5 (UTC -6 during Standard Time)
Zip code: 78221

Airport Operations

Airport use: Open to the public
Activation date: 04/1945
Control tower: no
ARTCC: HOUSTON CENTER
FSS: SAN ANGELO FLIGHT SERVICE STATION
NOTAMs facility: SJT (NOTAM-D service available)
Attendance: CONTINUOUS
Wind indicator: yes
Segmented circle: no

Airport Communications

CTAF: 122.9
WX ASOS at SSF (3 nm NE): PHONE 210-927-9391
WX ASOS at SAT (15 nm N): PHONE 210-805-5583
WX AWOS-3 at CVB (19 nm W): 119.25 (830-931-0232)
WX AWOS-3 at PEZ (20 nm S): 118.575 (830-569-5749)

Nearby radio navigation aids

VOR radial/distance  VOR name  Freq  Var
SSFr290/(3.3)STINSON VOR108.4009E
RNDr213/18.0RANDOLPH VORTAC112.3005E
SATr177/21.7SAN ANTONIO VORTAC116.8008E

 
NDB name  Hdg/Dist  Freq  Var  ID
DEVINE062/24.735907EHHH .... .... ....
HONDO091/35.632908EHMA .... -- .-

Airport Services

Parking: hangars and tiedowns
Bottled oxygen: NONE
Bulk oxygen: NONE

Runway Information

Runway 11/29

Dimensions: 2360 x 80 ft. / 719 x 24 m
Surface: turf, in good condition
Gradient: W
RUNWAY 11  RUNWAY 29
Latitude: 29-17.161922N29-16.982842N
Longitude: 098-30.013272W098-29.618742W
Elevation: 551.0 ft.540.0 ft.
Gradient: 0.4%0.5% UP
Traffic pattern: leftleft
Runway heading: 110 magnetic, 117 true290 magnetic, 297 true
Obstructions: 5 ft. fence, 119 ft. from runway, 137 ft. right of centerline, 23:1 slope to clear19 ft. trees

Runway 16/34

Dimensions: 2250 x 100 ft. / 686 x 30 m
Surface: turf, in good condition
Gradient: N
RUNWAY 16  RUNWAY 34
Latitude: 29-17.255087N29-16.899377N
Longitude: 098-30.046423W098-29.924860W
Elevation: 551.0 ft.529.0 ft.
Gradient: 0.4%1.0% UP
Traffic pattern: leftleft
Runway heading: 156 magnetic, 163 true336 magnetic, 343 true
Obstructions: 36 ft. trees, 110 ft. from runway, 70 ft. left of centerline, 3:1 slope to clear46 ft. trees, 522 ft. from runway, 11:1 slope to clear

Airport Ownership and Management from official FAA records

Ownership: Privately-owned
Owner: TOUDOUZE INVESTMENTS INC
PO BOX 380332
SAN ANTONIO, TX 78268
Phone (210) 859-9946
MANAGING PARTNER WILLIAM S. TOUDOUZE.
Manager: 13680 PLEASANTON RD.
SAN ANTONIO, TX 78221
Phone (210) 859-9946

Airport Operational Statistics

Aircraft based on the field: 3
Single engine airplanes: 3
    
Aircraft operations: 140/year *
71% local general aviation
29% transient general aviation
* for 12-month period ending 02 February 2017

Additional Remarks

RY THLDS MARKED BY 3 FT WHITE CONES.
NO LINE OF SIGHT BETWEEN RYS 34 & 29
WILD HOGS ON OR INVOF ARPT.
FOR CD CTC SAT APCH AT 210-805-5516.
NO COMMERCIAL FLIGHT SERVICE.

Instrument Procedures

There are no published instrument procedures at 74R.

Some nearby airports with instrument procedures:

KSSF - Stinson Municipal Airport (3 nm NE)
KSKF - Kelly Field Airport (7 nm NW)
KSAT - San Antonio International Airport (15 nm N)
KRND - Randolph Air Force Base (19 nm NE)
KCVB - Castroville Municipal Airport (19 nm W)
KPEZ - Pleasanton Municipal Airport (20 nm S)
 
Loc | Ops | Rwys | IFR | FBO | Links
Com | Nav | Svcs | Stats | Notes

AirNav Hotels Sweepstakes
 
Area around 74R (Horizon Airport)
 
Road maps at: MapQuest Bing Google
 
Aerial photo
WARNING: Photo may not be current or correct
Aerial photo of 74R (Horizon Airport)
Photo by Bill Lux at Bull's Nest, Inc.
Photo taken 24-Oct-2013
looking east.

Do you have a better or more recent aerial photo of Horizon Airport that you would like to share? If so, please send us your photo.

 
Sectional chart

 
Airport distance calculator
Flying to Horizon Airport? Find the distance to fly.

From to 74R

Sunrise and sunset
Times for 24-May-2018
 Local
(UTC-5)
 Zulu
(UTC)
Morning civil twilight06:1211:12
Sunrise06:3811:38
Sunset20:2301:23
Evening civil twilight20:5001:50

Current date and time
Zulu (UTC)  24-May-2018 10:10:58
Local (UTC-5)  24-May-2018 05:10:58
 
METAR
KSSF 
3nm NE 
240953Z AUTO 08004KT 10SM BKN014 BKN029 24/23 A3002 RMK AO2 SLP154 T02440228
KSKF 
6nm NW 
241001Z AUTO 09006KT 10SM BKN011 BKN017 24/22 A3002 RMK AO2 CIG 011V019 BKN011 V SCT CIG 010 RWY34 SLP158 $
KSAT 
15nm N 
241003Z 11006KT 10SM BKN009 23/21 A3005 RMK AO2 T02280211
KRND 
18nm NE 
240957Z AUTO 12004KT 10SM SCT006 BKN009 BKN017 BKN023 22/21 A3004 RMK AO2 CIG 009V016 CIG 007 RWY33R SLP164
KCVB 
19nm W 
240955Z AUTO 09005KT 10SM BKN009 OVC013 23/23 A3005 RMK AO2 T02330225
KPEZ 
20nm S 
240955Z AUTO 00000KT 10SM BKN008 OVC012 23/23 A3004 RMK AO2 T02260226
TAF
KSSF 
3nm NE 
240538Z 2406/2506 11006KT P6SM BKN017 FM241100 VRB03KT 6SM BR OVC007 FM241400 15005KT P6SM BKN015 FM241600 13007KT P6SM SCT040
KSKF 
6nm NW 
240822Z 2408/2508 09009KT 9999 BKN010 QNH3001INS TEMPO 2408/2412 BKN006 BECMG 2414/2415 16006KT 9999 SCT018 BKN030 QNH3004INS BECMG 2418/2419 15009KT 9999 SCT050 QNH2995INS TX33/2423Z TN22/2411Z
KSAT 
15nm N 
240538Z 2406/2512 12007KT P6SM BKN012 FM241000 13004KT P6SM OVC007 FM241400 16006KT P6SM BKN015 FM241600 13007KT P6SM SCT040
KRND 
18nm NE 
232213Z 2322/2423 13009KT 9999 SCT030 BKN040 QNH2994INS TEMPO 2322/2401 10015G25KT BECMG 2402/2403 12006KT 9999 SCT009 BKN018 QNH3001INS BECMG 2407/2408 16006KT 9999 OVC008 QNH3005INS TEMPO 2409/2413 6000 BR OVC006 BECMG 2415/2416 15006KT 9999 BKN020 QNH3007INS BECMG 2418/2419 15006KT 9999 SCT050 QNH3000INS TX33/2323Z TN22/2412Z LAST NO AMDS AFT 2400 NEXT 2409
NOTAMs
Click for the latest NOTAMs
NOTAMs are issued by the DoD/FAA and will open in a separate window not controlled by AirNav.

 

 
 

Would you like to see your business listed on this page?

 If your business provides an interesting product or service to pilots, flight crews, aircraft, or users of the Horizon Airport, you should consider listing it here.  To start the listing process, click on the button below
 
Add a business
 

Other Pages about Horizon Airport

Update a link
 
Copyright © AirNav, LLC. All rights reserved. Privacy Policy  Contact